Weather History for KDTW - May, 2013

Change the Weather History Date:

Wednesday, May 22, 2013

  Actual Average Record
Temperature  
Mean Temperature 74 °F 62 °F  
Max Temperature 84 °F 72 °F 90 °F (1994)
Min Temperature 63 °F 51 °F 32 °F (1883)
Degree Days  
Heating Degree Days 0 5  
Month to date heating degree days 79 171  
Since 1 July heating degree days 5848 6065  
Cooling Degree Days 9 2  
Month to date cooling degree days 66 20  
Year to date cooling degree days 66 26  
Growing Degree Days 24 (Base 50)    
Moisture  
Dew Point 61 °F    
Average Humidity 63    
Maximum Humidity 84    
Minimum Humidity 42    
Precipitation  
Precipitation 0.08 in 0.12 in 1.14 in (1949)
Month to date precipitation 0.33 2.34  
Year to date precipitation 12.64 11.50  
Snow  
Snow 0.00 in 0.00 in 2.70 in (1883)
Month to date snowfall 0.0 0.0  
Since 1 July snowfall 47.7 42.5  
Snow Depth 0.00 in    
Sea Level Pressure  
Sea Level Pressure 29.71 in    
Wind  
Wind Speed 14 mph (SSW)    
Max Wind Speed 45 mph    
Max Gust Speed 54 mph    
Visibility 9 miles    
Events Rain , Thunderstorm    
T = Trace of Precipitation, MM = Missing Value Source: NWS Daily Summary

Daily Weather History Graph

Daily Weather History Graph

Search for Another Location

Airport or City:

Trip Planner

Search our weather history database for the weather conditions in past years. The results will help you decide how hot, cold, wet, or windy it might be!

Date:

Astronomy

May. 22, 2013 Rise Set
Actual Time 6:05 AM EDT 8:54 PM EDT
Civil Twilight 5:32 AM EDT 9:27 PM EDT
Nautical Twilight 4:51 AM EDT 10:09 PM EDT
Astronomical Twilight 4:03 AM EDT 10:57 PM EDT
Moon 6:13 PM EDT (5/22) 4:12 AM EDT (5/22)
Length of Visible Light 15h 54m
Length of Day
14h 49m
Waxing Gibbous, 91% of the Moon is Illuminated
May 22
Waxing Gibbous
May 25
Full
May 31
Last Quarter
Jun 8
New
Jun 16
First Quarter

Hourly Weather History & Observations

Time (EDT) Temp. Heat Index Dew Point Humidity Pressure Visibility Wind Dir Wind Speed Gust Speed Precip Events Conditions
12:53 AM 72.0 °F - 62.1 °F 71% 29.75 in 9.0 mi South 3.5 mph - N/A   Overcast
1:53 AM 69.1 °F - 61.0 °F 75% 29.74 in 10.0 mi South 5.8 mph - N/A   Overcast
2:53 AM 70.0 °F - 60.1 °F 71% 29.74 in 10.0 mi South 4.6 mph - N/A   Mostly Cloudy
3:53 AM 68.0 °F - 60.1 °F 76% 29.73 in 10.0 mi South 8.1 mph - N/A   Mostly Cloudy
4:53 AM 69.1 °F - 60.1 °F 73% 29.73 in 10.0 mi South 8.1 mph - N/A   Overcast
5:53 AM 70.0 °F - 60.1 °F 71% 29.74 in 10.0 mi South 9.2 mph - N/A   Overcast
6:53 AM 69.1 °F - 60.1 °F 73% 29.74 in 8.0 mi South 6.9 mph - 0.00 in   Overcast
7:53 AM 69.1 °F - 61.0 °F 75% 29.75 in 10.0 mi South 10.4 mph - 0.00 in   Overcast
8:42 AM 69.8 °F - 62.6 °F 78% 29.77 in 10.0 mi South 10.4 mph - N/A   Overcast
8:53 AM 70.0 °F - 62.1 °F 76% 29.76 in 10.0 mi South 12.7 mph - N/A   Overcast
9:22 AM 71.6 °F - 62.6 °F 73% 29.75 in 10.0 mi South 15.0 mph - N/A   Overcast
9:53 AM 72.0 °F - 63.0 °F 73% 29.73 in 10.0 mi South 13.8 mph - N/A   Overcast
10:53 AM 73.0 °F - 63.0 °F 71% 29.73 in 10.0 mi South 13.8 mph - N/A   Overcast
11:53 AM 77.0 °F - 62.1 °F 60% 29.72 in 10.0 mi SSW 19.6 mph 24.2 mph N/A   Mostly Cloudy
12:53 PM 73.9 °F - 64.9 °F 73% 29.71 in 10.0 mi South 15.0 mph - 0.03 in   Overcast
1:53 PM 77.0 °F - 63.0 °F 62% 29.70 in 10.0 mi South 19.6 mph 28.8 mph N/A   Mostly Cloudy
2:53 PM 77.0 °F - 62.1 °F 60% 29.68 in 10.0 mi South 21.9 mph - 0.00 in   Mostly Cloudy
3:53 PM 82.9 °F 82.6 °F 57.9 °F 42% 29.66 in 10.0 mi SSW 27.6 mph 32.2 mph N/A   Scattered Clouds
4:53 PM 81.0 °F 80.8 °F 55.9 °F 42% 29.64 in 10.0 mi SSW 21.9 mph 28.8 mph N/A   Mostly Cloudy
5:29 PM 75.2 °F - 60.8 °F 61% 29.70 in 1.5 mi SSW 43.7 mph 54.1 mph 0.00 in Rain Rain
5:34 PM 68.0 °F - 64.4 °F 88% 29.69 in 2.0 mi SSW 28.8 mph 54.1 mph 0.00 in Rain Heavy Rain
5:38 PM 68.0 °F - 64.4 °F 88% 29.69 in 3.0 mi SW 25.3 mph 46.0 mph 0.04 in Rain Light Rain
5:53 PM 69.1 °F - 64.0 °F 84% 29.67 in 10.0 mi SW 17.3 mph 24.2 mph 0.05 in Rain Light Rain
6:53 PM 72.0 °F - 61.0 °F 68% 29.67 in 10.0 mi SSW 18.4 mph 25.3 mph 0.00 in   Mostly Cloudy
7:53 PM 71.1 °F - 62.1 °F 73% 29.67 in 10.0 mi SW 11.5 mph 20.7 mph N/A   Mostly Cloudy
8:38 PM 71.6 °F - 62.6 °F 73% 29.70 in 10.0 mi SSW 9.2 mph - N/A Thunderstorm Thunderstorm
8:53 PM 71.1 °F - 57.0 °F 61% 29.70 in 10.0 mi SSW 21.9 mph 32.2 mph 0.00 in Rain , Thunderstorm Light Thunderstorms and Rain
8:59 PM 69.8 °F - 57.2 °F 64% 29.71 in 10.0 mi SW 18.4 mph 29.9 mph 0.00 in Rain Light Rain
9:53 PM 64.9 °F - 57.9 °F 78% 29.70 in 10.0 mi SSW 9.2 mph - 0.00 in   Mostly Cloudy
10:53 PM 64.0 °F - 57.9 °F 80% 29.71 in 10.0 mi SSW 9.2 mph - N/A   Mostly Cloudy
11:53 PM 64.0 °F - 59.0 °F 84% 29.70 in 10.0 mi SW 8.1 mph - N/A   Overcast